Regional Weather Roundup
Issued by NWS Goodland, KS

Home | Current Version | Previous Version | Graphics & Text | Print | Product List | Glossary On
Versions: 1 2 3 4 5 6 7 8 9 10 11 12 13 14 15 16 17 18 19 20 21 22 23 24 25 26 27 28 29 30 31 32 33 34 35 36 37 38 39 40 41 42 43 44 45 46 47 48 49 50
000
ASUS43 KGLD 050108
RWRGLD

GOODLAND FORECAST AREA HOURLY WEATHER ROUNDUP
NATIONAL WEATHER SERVICE GOODLAND KS
700 PM MDT FRI SEP 04 2015

...OFFICIAL OBSERVATIONS...

CITY           SKY/WX    TMP DP  RH WIND       PRES   REMARKS
GOODLAND KS    MOCLDY    88  52  29 S17       29.88R
HILL CITY KS   PTCLDY    93  56  28 S12G23    29.82R
IMPERIAL NEB   PTCLDY    82  56  40 NE8       29.84S
MCCOOK NEB     CLEAR     90  55  30 SE7       29.80S
AKRON CO       MOCLDY    84  44  24 SE14      29.91S
BURLINGTON CO  MOCLDY    84  49  29 S13       29.91R
LIMON CO       MOCLDY    80  47  31 S7        29.97S
$$

...UNOFFICIAL OBSERVATIONS...

CITY           SKY/WX    TMP DP  RH WIND       PRES   REMARKS
COLBY KS       CLEAR     90  57  33 S12       29.87S
GOVE KS          N/A     88  32  13 MISG        N/A
LENORA KS        N/A     89  32  13 MISG        N/A
NORTON KS      CLEAR     88  50  27 S7        29.80F
SHARON SPRINGS   N/A     86  55  34 SE8         N/A
TRENTON NEB      N/A     87  32  14 E5          N/A
KIT CARSON CO    N/A     86  53  31 MISG        N/A
YUMA CO          N/A     82  51  33 SE6         N/A
$$


USA.gov is the U.S. government's official web portal to all federal, state and local government web resources and services.